Mobridge, SD

3:23 PM CDT on April 24, 2017 (GMT -0500)
Mobridge Municipal

Weather History for KMBG - December, 2012

Change the Weather History Date:

Sunday, December 30, 2012

  Actual Average Record
Temperature  
Mean Temperature 11 °F 16 °F  
Max Temperature 24 °F 26 °F 51 °F (1956)
Min Temperature -3 °F 6 °F -31 °F (1990)
Degree Days  
Heating Degree Days 54 49  
Month to date heating degree days 1388 1400  
Since 1 July heating degree days 3135 3166  
Cooling Degree Days 0 0  
Month to date cooling degree days 0 0  
Year to date cooling degree days 866 644  
Moisture  
Dew Point 10 °F    
Average Humidity 81    
Maximum Humidity 95    
Minimum Humidity 67    
Precipitation  
Precipitation 0.00 in 0.03 in 0.87 in (1931)
Month to date precipitation 0.54 0.42  
Year to date precipitation 13.71 17.85  
Snow  
Snow 0.00 in - - ()
Month to date snowfall 8.2  
Since 1 July snowfall 8.7  
Snow Depth 2.00 in    
Sea Level Pressure  
Sea Level Pressure 30.04 in    
Wind  
Wind Speed 8 mph (NNW)    
Max Wind Speed 22 mph    
Max Gust Speed 25 mph    
Visibility 10 miles    
Events      
T = Trace of Precipitation, MM = Missing Value Source: NWS Daily Summary

Daily Weather History Graph

Daily Weather History Graph

Search for Another Location

Airport or City:

Trip Planner

Search our weather history database for the weather conditions in past years. The results will help you decide how hot, cold, wet, or windy it might be!

Date:

Astronomy

Dec. 30, 2012 Rise Set
Actual Time 8:21 AM CST 5:07 PM CST
Civil Twilight 7:47 AM CST 5:41 PM CST
Nautical Twilight 7:10 AM CST 6:18 PM CST
Astronomical Twilight 6:34 AM CST 6:55 PM CST
Moon 7:48 PM CST (12/30) 9:24 AM CST (12/30)
Length of Visible Light 9h 53m
Length of Day
8h 45m
Waning Gibbous, 95% of the Moon is Illuminated
Dec 30
Waning Gibbous
Jan 4
Last Quarter
Jan 11
New
Jan 18
First Quarter
Jan 26
Full

Hourly Weather History & Observations

Time (CST) Temp. Windchill Dew Point Humidity Pressure Visibility Wind Dir Wind Speed Gust Speed Precip Events Conditions
12:52 AM 8.1 °F - 3.9 °F 83% 30.09 in 10.0 mi Calm Calm - N/A   Clear
1:52 AM 9.0 °F -3.2 °F 6.1 °F 88% 30.07 in 10.0 mi SE 8.1 mph - N/A   Clear
2:52 AM 10.9 °F 1.4 °F 6.1 °F 81% 30.05 in 10.0 mi ESE 5.8 mph - N/A   Clear
3:52 AM 10.9 °F 1.4 °F 7.0 °F 84% 30.01 in 10.0 mi ESE 5.8 mph - N/A   Clear
4:52 AM 9.0 °F - 6.1 °F 88% 30.00 in 10.0 mi Calm Calm - N/A   Clear
5:52 AM 5.0 °F -5.6 °F 1.9 °F 87% 30.01 in 10.0 mi North 5.8 mph - N/A   Clear
6:52 AM 1.9 °F - -0.9 °F 88% 30.01 in 10.0 mi Calm Calm - N/A   Clear
7:52 AM -0.0 °F -7.9 °F -4.0 °F 83% 30.01 in 10.0 mi NNW 3.5 mph - N/A   Clear
8:52 AM -0.9 °F -11.0 °F -4.0 °F 87% 30.01 in 10.0 mi North 4.6 mph - N/A   Clear
9:52 AM 7.0 °F -5.7 °F 3.0 °F 84% 30.00 in 10.0 mi North 8.1 mph - N/A   Clear
10:52 AM 9.0 °F -0.9 °F 3.9 °F 80% 30.00 in 10.0 mi NNW 5.8 mph - N/A   Clear
11:52 AM 14.0 °F 2.0 °F 8.1 °F 77% 29.99 in 10.0 mi NNW 9.2 mph - N/A   Clear
12:52 PM 19.0 °F 7.5 °F 10.9 °F 71% 29.97 in 10.0 mi NNW 10.4 mph - N/A   Clear
1:52 PM 23.0 °F 7.6 °F 14.0 °F 68% 29.96 in 10.0 mi NNW 21.9 mph - N/A   Clear
2:52 PM 23.0 °F 10.6 °F 15.1 °F 72% 29.99 in 10.0 mi NW 13.8 mph - N/A   Clear
3:16 PM 23.0 °F 10.1 °F 15.8 °F 74% 29.90 in 10.0 mi NW 15.0 mph - N/A   Mostly Cloudy
3:24 PM 23.0 °F 9.6 °F 15.8 °F 74% 29.91 in 10.0 mi NW 16.1 mph - N/A   Scattered Clouds
3:49 PM 23.0 °F 11.1 °F 17.6 °F 80% 29.92 in 10.0 mi NW 12.7 mph - N/A   Mostly Cloudy
3:52 PM 24.1 °F 12.0 °F 17.1 °F 75% 30.01 in 10.0 mi NW 13.8 mph - N/A   Scattered Clouds
4:52 PM 21.9 °F 8.2 °F 16.0 °F 78% 30.05 in 10.0 mi NW 16.1 mph - N/A   Clear
5:52 PM 19.9 °F 7.9 °F 15.1 °F 81% 30.09 in 10.0 mi NW 11.5 mph - N/A   Clear
6:52 PM 18.0 °F 6.1 °F 14.0 °F 84% 30.14 in 10.0 mi NW 10.4 mph - N/A   Partly Cloudy
7:06 PM 19.4 °F 6.6 °F 15.8 °F 86% 30.03 in 10.0 mi NW 12.7 mph - N/A   Mostly Cloudy
7:52 PM 19.9 °F 8.6 °F 16.0 °F 85% 30.15 in 10.0 mi NNW 10.4 mph - N/A   Overcast
8:52 PM 21.0 °F 10.6 °F 16.0 °F 81% 30.16 in 10.0 mi NW 9.2 mph - N/A   Overcast
9:52 PM 21.0 °F 9.9 °F 16.0 °F 81% 30.16 in 10.0 mi NW 10.4 mph - N/A   Overcast
10:52 PM 21.9 °F 14.5 °F 17.1 °F 82% 30.16 in 10.0 mi NNW 5.8 mph - N/A   Overcast
11:52 PM 23.0 °F 13.9 °F 17.1 °F 78% 30.16 in 10.0 mi North 8.1 mph - N/A   Overcast